Location: Ash Swamp
(41.5170°N, 74.6157°W)
Time: 02:01:09
(UTC+00:00)

OE (NEXTSAT) - Pass Details

Date: 14 July 2020
Orbit: 430 x 439 km, 46.0° (Epoch: 14 August)

Event Time Altitude Azimuth Distance (km) Brightness Sun altitude
Exits shadow 08:33:25 15° 242° (WSW) 1,231 6.0 -10.5°
Maximum altitude 08:36:08 82° 156° (SSE) 437 4.3 -10.1°
Drops below altitude 10° 08:39:35 10° 68° (ENE) 1,527 8.4 -9.6°
Sets 08:41:42 0° 68° (ENE) 2,396 9.7 -9.3°
